SCP
0 0 0 0 0 0 0 -0 0 0 0 0 0 0 0 0 0 0 0 0 0 0
0 0 0 0 0 0 -0 -0 0 0 0 0 0 0 0 0 0 0 0 0 0 0
0 0 0 0 0 0 0 0 0 0 0 0 0 0 0 0 0 0 0 0 0 0
0 0 0 0 0 0 0 0 0 0 0 0 0 0 0 0 0 0 0 0 0 0
0 0 0 0 0 0 0 0 0 0 0 0 0 0 0 0 0 0 0 0 0 0
0 0 0 0 0 0 0 0 0 0 0 0 0 0 0 0 0 0 0 0 0 0
0 0 0 0 0 0 0 0 0 0 0 0 0 0 0 0 0 0 0 0 0 0
0 0 0 0 0 0 0 0 0 0 0 0 0 0 0 0 0 0 0 0 0 0
-0 0 0 0 0 0 0 -0 0 0 0 0 0 0 0 0 0 0 0 0 0 0
0 0 0 0 0 0 0 0 0 0 0 0 0 -0 0 0 0 0 0 0 0 0
0 0 0 0 0 0 0 0 0 0 0 0 -0 0 0 0 0 0 0 0 -0 -0
0 0 0 0 0 0 0 0 0 0 0 0 -0 0 0 0 0 -0 -0 -0 -0 0
0 0 0 0 0 0 0 0 0 0 0 0 -0 -0 0 0 0 0 -0 -0 -0 0
0 0 0 0 0 0 0 0 0 0 0 0 0 -0 0 0 0 0 -0 -0 0 -0
Wind_Speed_500mb
12 8 13 16 20 4 10 21 30 28 29 21 24 17 14 20 22 24 31 30 32 39
11 10 12 16 17 11 18 21 29 27 29 20 23 19 16 20 21 26 32 35 44 48
5 11 12 12 12 16 15 16 22 25 25 27 26 24 20 19 22 21 31 36 53 46
1 9 10 11 12 13 15 19 21 22 27 32 33 26 23 25 30 31 30 30 38 44
4 4 7 14 11 10 16 22 24 31 33 36 35 30 29 34 32 33 35 34 34 47
7 5 10 15 12 16 20 24 28 32 33 37 36 30 28 28 32 29 27 29 36 48
7 17 15 16 19 23 27 28 32 29 31 33 30 29 32 32 30 27 22 24 38 46
22 28 17 26 26 30 34 28 31 34 33 29 25 26 29 31 23 21 25 31 38 50
29 23 21 26 23 28 30 25 24 31 28 22 20 21 24 32 19 27 40 37 40 43
30 27 27 23 21 22 22 20 20 26 25 25 25 25 32 30 27 35 40 42 47 46
38 36 28 28 24 21 16 12 14 25 29 30 29 28 33 36 30 34 40 42 48 60
47 44 35 29 28 23 23 9 15 20 27 32 32 34 37 38 36 40 39 37 39 46
50 45 40 38 30 30 24 14 25 25 25 32 34 34 33 34 35 38 39 38 40 37
39 46 44 41 36 32 30 22 26 30 33 35 30 31 30 33 34 33 33 30 33 33
Wind_Direction_500mb
357 351 14 22 6 12 144 166 174 180 171 163 165 162 167 168 178 175 186 183 189 190
14 18 11 15 23 79 127 144 172 172 176 161 161 170 174 175 170 175 180 180 171 166
34 28 28 22 51 93 120 147 165 173 176 174 166 172 172 171 168 181 178 180 176 180
311 23 52 50 87 99 95 134 149 156 158 159 164 163 162 161 155 165 162 157 166 169
198 31 69 62 79 118 102 123 131 151 148 152 158 158 154 154 155 157 158 158 160 168
178 94 87 69 69 135 129 126 127 141 145 149 155 160 164 154 145 153 161 161 163 169
157 122 103 83 91 134 134 126 133 138 147 151 156 163 167 168 157 156 153 164 172 176
143 124 110 99 94 117 129 125 137 144 147 157 160 173 179 186 187 189 178 164 170 171
149 158 143 115 96 125 134 131 145 157 160 161 163 172 174 170 158 157 150 149 150 158
164 156 146 143 133 117 118 114 119 148 160 156 143 152 157 155 156 150 146 143 150 151
171 169 162 164 174 164 135 111 136 141 154 152 140 146 141 142 146 148 146 149 153 152
176 177 178 170 167 169 159 134 153 144 145 153 151 151 144 144 139 144 147 147 150 162
185 185 187 191 185 172 175 165 167 163 153 148 144 151 157 156 156 156 158 156 158 166
184 187 191 188 192 201 193 184 168 173 171 169 162 153 152 160 160 157 156 151 161 164
Wind_Speed_850mb
12 8 13 16 20 4 10 21 30 28 29 21 24 17 14 20 22 24 31 30 32 39
11 10 12 16 17 11 18 21 29 27 29 20 23 19 16 20 21 26 32 35 44 48
5 11 12 12 12 16 15 16 22 25 25 27 26 24 20 19 22 21 31 36 53 46
1 9 10 11 12 13 15 19 21 22 27 32 33 26 23 25 30 31 30 30 38 44
4 4 7 14 11 10 16 22 24 31 33 36 35 30 29 34 32 33 35 34 34 47
7 5 10 15 12 16 20 24 28 32 33 37 36 30 28 28 32 29 27 29 36 48
7 17 15 16 19 23 27 28 32 29 31 33 30 29 32 32 30 27 22 24 38 46
22 28 17 26 26 30 34 28 31 34 33 29 25 26 29 31 23 21 25 31 38 50
29 23 21 26 23 28 30 25 24 31 28 22 20 21 24 32 19 27 40 37 40 43
30 27 27 23 21 22 22 20 20 26 25 25 25 25 32 30 27 35 40 42 47 46
38 36 28 28 24 21 16 12 14 25 29 30 29 28 33 36 30 34 40 42 48 60
47 44 35 29 28 23 23 9 15 20 27 32 32 34 37 38 36 40 39 37 39 46
50 45 40 38 30 30 24 14 25 25 25 32 34 34 33 34 35 38 39 38 40 37
39 46 44 41 36 32 30 22 26 30 33 35 30 31 30 33 34 33 33 30 33 33
Wind_Direction_850mb
357 351 14 22 6 12 144 166 174 180 171 163 165 162 167 168 178 175 186 183 189 190
14 18 11 15 23 79 127 144 172 172 176 161 161 170 174 175 170 175 180 180 171 166
34 28 28 22 51 93 120 147 165 173 176 174 166 172 172 171 168 181 178 180 176 180
311 23 52 50 87 99 95 134 149 156 158 159 164 163 162 161 155 165 162 157 166 169
198 31 69 62 79 118 102 123 131 151 148 152 158 158 154 154 155 157 158 158 160 168
178 94 87 69 69 135 129 126 127 141 145 149 155 160 164 154 145 153 161 161 163 169
157 122 103 83 91 134 134 126 133 138 147 151 156 163 167 168 157 156 153 164 172 176
143 124 110 99 94 117 129 125 137 144 147 157 160 173 179 186 187 189 178 164 170 171
149 158 143 115 96 125 134 131 145 157 160 161 163 172 174 170 158 157 150 149 150 158
164 156 146 143 133 117 118 114 119 148 160 156 143 152 157 155 156 150 146 143 150 151
171 169 162 164 174 164 135 111 136 141 154 152 140 146 141 142 146 148 146 149 153 152
176 177 178 170 167 169 159 134 153 144 145 153 151 151 144 144 139 144 147 147 150 162
185 185 187 191 185 172 175 165 167 163 153 148 144 151 157 156 156 156 158 156 158 166
184 187 191 188 192 201 193 184 168 173 171 169 162 153 152 160 160 157 156 151 161 164